GFSSGP_500_temp_198.txt.gz
Temp
-6 -6 -5 -5 -5 -5 -5 -5 -6 -7 -7 -7 -5 -5 -5 -6 -5 -5 -4 -5 -4 -5 -5 -5 -5 -5 -5 -5 -6 -5 -5 -4 -4 -4 -4 -3 -3 -3 -3 -3 -3 -4 -4 -4 -4 -5 -5 -4 -5
-5 -6 -6 -6 -5 -5 -6 -6 -7 -7 -8 -5 -6 -6 -6 -7 -5 -4 -5 -5 -5 -6 -5 -5 -5 -5 -5 -5 -6 -5 -5 -4 -5 -4 -4 -4 -4 -4 -3 -3 -3 -4 -4 -4 -4 -5 -5 -5 -5
-5 -5 -6 -5 -5 -5 -6 -8 -8 -8 -8 -6 -6 -5 -6 -6 -4 -4 -5 -6 -5 -5 -5 -5 -5 -5 -5 -6 -6 -6 -6 -5 -5 -4 -4 -4 -4 -4 -4 -3 -3 -4 -4 -4 -4 -5 -5 -5 -5
-5 -5 -5 -5 -6 -6 -6 -8 -8 -8 -6 -5 -6 -6 -6 -6 -5 -5 -5 -5 -5 -4 -6 -5 -5 -5 -6 -6 -6 -7 -6 -6 -5 -4 -4 -4 -4 -4 -4 -4 -4 -4 -4 -4 -5 -5 -5 -5 -5
-5 -5 -5 -5 -5 -6 -6 -8 -6 -7 -6 -6 -6 -6 -6 -5 -5 -5 -5 -5 -5 -4 -5 -5 -5 -5 -5 -5 -6 -6 -6 -5 -5 -4 -5 -4 -4 -4 -4 -4 -4 -4 -4 -4 -5 -5 -5 -5 -5
-6 -5 -5 -6 -6 -6 -7 -8 -5 -5 -6 -7 -6 -6 -7 -6 -5 -5 -5 -5 -6 -5 -4 -6 -5 -5 -4 -5 -5 -6 -5 -5 -4 -4 -4 -4 -5 -5 -5 -5 -4 -4 -4 -4 -5 -5 -5 -5 -6
-6 -6 -6 -6 -6 -7 -10 -8 -5 -5 -6 -6 -6 -5 -6 -7 -4 -4 -6 -5 -6 -5 -5 -5 -5 -5 -4 -4 -5 -5 -5 -5 -4 -4 -4 -4 -5 -5 -5 -5 -5 -5 -5 -5 -5 -5 -5 -5 -6
-7 -7 -7 -7 -7 -8 -9 -6 -5 -5 -5 -7 -5 -5 -5 -6 -5 -4 -6 -5 -5 -6 -5 -6 -5 -5 -5 -5 -6 -5 -5 -5 -5 -5 -4 -5 -5 -5 -5 -5 -5 -5 -5 -5 -5 -5 -5 -5 -6
-7 -7 -7 -8 -8 -8 -10 -6 -5 -5 -6 -7 -7 -6 -6 -6 -6 -5 -6 -6 -6 -6 -5 -6 -6 -5 -6 -7 -6 -5 -5 -5 -4 -4 -4 -4 -5 -6 -6 -6 -6 -5 -5 -5 -5 -5 -5 -6 -6
-7 -7 -8 -8 -7 -8 -7 -7 -7 -7 -7 -6 -7 -7 -6 -7 -6 -5 -5 -6 -6 -6 -5 -5 -5 -5 -5 -6 -7 -5 -5 -5 -5 -5 -5 -5 -5 -5 -6 -5 -6 -6 -6 -6 -5 -6 -6 -6 -6
-7 -8 -9 -9 -8 -9 -9 -8 -8 -7 -7 -7 -7 -7 -6 -6 -7 -6 -5 -6 -6 -6 -4 -5 -5 -5 -5 -5 -6 -7 -6 -5 -5 -5 -5 -5 -5 -5 -6 -6 -6 -6 -6 -6 -6 -6 -6 -6 -6
-8 -9 -9 -10 -10 -9 -10 -9 -9 -9 -8 -8 -7 -8 -7 -7 -7 -7 -6 -6 -7 -6 -5 -5 -8 -7 -6 -5 -6 -7 -7 -6 -5 -5 -5 -5 -6 -5 -6 -6 -6 -6 -6 -7 -6 -7 -6 -6 -6
-9 -10 -10 -10 -10 -10 -11 -10 -10 -10 -9 -9 -9 -8 -8 -8 -7 -7 -6 -6 -7 -6 -4 -4 -6 -6 -6 -5 -6 -6 -6 -6 -6 -5 -5 -5 -5 -5 -5 -6 -6 -6 -7 -6 -6 -7 -6 -6 -7
-10 -11 -11 -11 -11 -11 -11 -10 -11 -10 -10 -10 -9 -9 -9 -9 -8 -8 -7 -7 -7 -5 -4 -6 -6 -7 -8 -5 -6 -6 -7 -7 -6 -6 -6 -5 -5 -6 -6 -6 -6 -7 -6 -6 -6 -7 -7 -6 -7
-11 -11 -11 -11 -11 -11 -11 -11 -10 -10 -10 -10 -10 -9 -9 -9 -9 -9 -8 -8 -7 -7 -5 -6 -6 -7 -7 -7 -6 -7 -7 -7 -7 -6 -6 -6 -5 -6 -6 -6 -6 -6 -6 -7 -7 -7 -7 -7 -7
-12 -11 -11 -13 -13 -11 -11 -11 -11 -12 -10 -10 -11 -10 -10 -10 -10 -9 -9 -9 -8 -8 -7 -6 -8 -7 -7 -8 -7 -8 -7 -7 -7 -7 -7 -6 -6 -6 -6 -6 -6 -6 -7 -7 -7 -7 -7 -7 -7
-14 -14 -13 -13 -14 -13 -13 -11 -11 -13 -12 -11 -11 -12 -12 -11 -12 -12 -11 -9 -9 -8 -8 -7 -7 -8 -7 -8 -8 -8 -8 -7 -7 -7 -7 -7 -6 -6 -6 -6 -6 -7 -6 -7 -7 -7 -7 -7 -7
-13 -13 -13 -12 -12 -12 -12 -12 -12 -12 -12 -12 -12 -12 -12 -12 -12 -12 -12 -11 -10 -9 -8 -8 -7 -8 -9 -8 -8 -7 -7 -7 -6 -7 -7 -6 -6 -7 -7 -7 -7 -7 -7 -7 -7 -7 -7 -7 -7
-13 -13 -13 -12 -12 -12 -12 -13 -13 -13 -13 -13 -13 -13 -13 -12 -12 -12 -12 -12 -12 -10 -10 -8 -8 -8 -9 -8 -8 -7 -8 -8 -7 -6 -7 -7 -8 -7 -7 -7 -7 -8 -7 -7 -7 -7 -7 -7 -7
-12 -12 -13 -13 -13 -13 -13 -12 -14 -14 -14 -13 -13 -13 -13 -13 -12 -12 -13 -12 -12 -12 -10 -10 -10 -8 -9 -8 -8 -8 -7 -8 -7 -7 -7 -7 -7 -7 -7 -7 -7 -7 -7 -7 -7 -7 -8 -9 -7
-12 -12 -13 -13 -13 -13 -13 -13 -14 -15 -15 -14 -13 -13 -13 -12 -13 -13 -13 -13 -13 -13 -12 -11 -11 -10 -9 -9 -8 -8 -8 -7 -7 -7 -8 -7 -7 -7 -7 -7 -7 -7 -8 -9 -8 -8 -8 -7 -7
-12 -13 -13 -13 -13 -13 -14 -13 -14 -14 -15 -14 -13 -12 -12 -13 -13 -13 -13 -14 -14 -13 -13 -12 -12 -11 -10 -9 -9 -8 -8 -7 -8 -7 -8 -8 -7 -7 -8 -7 -7 -8 -8 -9 -10 -10 -8 -7 -7
-12 -13 -13 -13 -13 -13 -15 -16 -14 -15 -14 -16 -14 -14 -14 -13 -13 -14 -15 -15 -15 -14 -14 -12 -12 -12 -11 -10 -9 -8 -7 -6 -7 -6 -8 -8 -8 -7 -8 -8 -8 -8 -8 -8 -8 -9 -9 -7 -7
-12 -12 -13 -13 -14 -14 -15 -15 -14 -15 -14 -15 -15 -14 -14 -14 -14 -15 -15 -16 -17 -18 -16 -13 -12 -12 -12 -11 -10 -9 -8 -7 -6 -6 -8 -9 -8 -7 -7 -7 -8 -8 -8 -8 -8 -9 -8 -7 -7
-13 -13 -13 -13 -13 -15 -15 -15 -15 -15 -15 -16 -14 -14 -14 -15 -15 -15 -16 -17 -18 -17 -17 -16 -13 -13 -13 -12 -11 -10 -9 -8 -7 -7 -8 -8 -8 -7 -7 -8 -8 -8 -8 -8 -8 -9 -8 -8 -7
-13 -13 -13 -13 -13 -13 -14 -15 -15 -16 -16 -15 -15 -16 -15 -14 -15 -16 -16 -17 -17 -17 -16 -16 -15 -14 -14 -13 -12 -11 -9 -9 -8 -6 -9 -8 -9 -7 -7 -8 -8 -8 -8 -8 -9 -8 -8 -8 -8
-14 -14 -14 -13 -14 -13 -14 -16 -16 -16 -15 -15 -16 -15 -16 -14 -15 -17 -16 -16 -16 -16 -17 -17 -15 -14 -14 -14 -13 -11 -10 -10 -10 -10 -8 -9 -9 -8 -7 -7 -8 -7 -8 -8 -9 -8 -8 -8 -8
-14 -14 -14 -14 -14 -14 -14 -14 -16 -16 -16 -17 -16 -16 -16 -15 -16 -16 -16 -17 -17 -18 -17 -17 -16 -15 -15 -15 -14 -12 -11 -11 -9 -9 -9 -9 -8 -9 -9 -8 -8 -8 -8 -9 -9 -8 -8 -8 -8
-15 -15 -16 -15 -15 -15 -14 -14 -16 -16 -16 -15 -16 -15 -16 -15 -16 -16 -16 -16 -18 -18 -17 -16 -15 -15 -15 -15 -14 -13 -12 -11 -10 -9 -8 -8 -8 -8 -8 -8 -8 -9 -8 -8 -10 -9 -8 -8 -8
-15 -15 -15 -14 -15 -14 -15 -13 -15 -15 -15 -16 -16 -16 -16 -16 -16 -16 -17 -17 -17 -18 -18 -17 -16 -15 -15 -15 -15 -13 -12 -12 -8 -8 -8 -8 -9 -9 -9 -8 -9 -9 -9 -9 -10 -8 -8 -8 -8

GFSSGP_500_temp_201.txt.gz
Temp
-5 -5 -5 -5 -5 -5 -5 -6 -6 -6 -7 -7 -7 -7 -7 -6 -6 -5 -5 -5 -5 -5 -5 -5 -4 -4 -4 -5 -5 -5 -4 -5 -5 -5 -4 -4 -4 -4 -4 -4 -3 -3 -3 -4 -4 -4 -4 -5 -5
-5 -5 -5 -5 -5 -5 -6 -6 -6 -7 -7 -7 -7 -7 -6 -6 -5 -5 -5 -5 -6 -6 -6 -5 -5 -5 -5 -5 -5 -5 -5 -5 -5 -5 -5 -4 -4 -4 -4 -4 -4 -3 -4 -4 -4 -4 -4 -5 -5
-5 -5 -5 -5 -5 -6 -7 -6 -9 -8 -8 -7 -6 -6 -7 -6 -5 -5 -5 -5 -5 -6 -5 -5 -5 -5 -5 -5 -5 -5 -5 -6 -5 -5 -5 -4 -5 -4 -5 -4 -4 -3 -4 -4 -4 -4 -4 -5 -5
-5 -5 -5 -5 -5 -6 -7 -7 -8 -9 -8 -7 -7 -5 -6 -7 -5 -5 -4 -4 -4 -5 -5 -5 -5 -5 -5 -5 -5 -5 -5 -6 -6 -5 -5 -4 -5 -5 -5 -4 -4 -4 -4 -4 -4 -4 -4 -5 -5
-6 -5 -5 -5 -6 -6 -7 -7 -7 -7 -8 -7 -6 -7 -6 -5 -5 -4 -4 -5 -4 -5 -5 -5 -5 -5 -5 -5 -5 -5 -5 -6 -7 -6 -5 -4 -4 -5 -5 -5 -4 -4 -4 -4 -4 -4 -4 -5 -5
-6 -6 -6 -6 -6 -6 -7 -8 -7 -7 -7 -7 -5 -6 -7 -5 -4 -5 -5 -5 -5 -4 -5 -6 -5 -5 -5 -5 -5 -5 -5 -6 -7 -6 -5 -4 -4 -5 -5 -5 -5 -4 -4 -4 -4 -4 -4 -5 -5
-6 -6 -6 -6 -7 -7 -7 -7 -7 -6 -6 -7 -7 -7 -5 -5 -5 -4 -4 -5 -5 -4 -4 -6 -5 -5 -5 -5 -5 -5 -4 -6 -5 -5 -5 -5 -4 -5 -5 -5 -5 -5 -4 -5 -4 -5 -5 -5 -5
-6 -6 -6 -7 -7 -8 -7 -6 -6 -5 -5 -5 -7 -7 -6 -6 -5 -5 -5 -4 -5 -5 -4 -5 -5 -5 -5 -5 -5 -5 -4 -5 -6 -5 -4 -5 -5 -5 -5 -5 -5 -5 -5 -5 -5 -5 -5 -5 -5
-6 -6 -7 -7 -6 -7 -7 -6 -5 -4 -4 -5 -7 -7 -7 -7 -6 -5 -6 -5 -4 -5 -5 -6 -5 -5 -5 -5 -5 -5 -6 -6 -5 -5 -5 -5 -5 -5 -5 -5 -5 -5 -5 -5 -5 -6 -5 -5 -5
-6 -6 -7 -7 -7 -7 -7 -7 -7 -6 -7 -7 -8 -8 -7 -7 -6 -6 -5 -6 -5 -4 -5 -5 -6 -5 -5 -6 -6 -6 -7 -6 -6 -5 -5 -5 -6 -6 -6 -5 -5 -5 -5 -5 -5 -6 -6 -5 -5
-7 -7 -8 -8 -8 -7 -9 -9 -8 -8 -8 -8 -8 -8 -7 -7 -7 -7 -6 -6 -7 -6 -5 -5 -6 -6 -6 -6 -6 -7 -7 -7 -6 -6 -6 -5 -6 -6 -6 -6 -6 -5 -5 -5 -5 -6 -6 -6 -6
-8 -8 -8 -8 -9 -8 -9 -10 -10 -10 -9 -9 -8 -8 -8 -8 -7 -8 -7 -6 -7 -6 -5 -5 -5 -7 -6 -6 -6 -6 -7 -7 -7 -7 -6 -6 -6 -6 -6 -5 -6 -6 -6 -5 -5 -6 -6 -6 -6
-8 -9 -9 -9 -10 -10 -10 -10 -10 -10 -11 -10 -10 -9 -9 -9 -8 -8 -8 -7 -7 -7 -6 -5 -5 -7 -6 -7 -7 -6 -7 -7 -7 -7 -6 -6 -6 -6 -6 -6 -6 -5 -5 -5 -5 -6 -6 -7 -6
-9 -10 -10 -11 -11 -11 -11 -11 -11 -11 -11 -11 -10 -10 -10 -10 -10 -9 -8 -8 -8 -7 -7 -6 -6 -6 -6 -6 -7 -7 -6 -7 -7 -7 -6 -6 -6 -6 -5 -6 -6 -6 -5 -5 -6 -6 -7 -6 -6
-9 -10 -11 -12 -12 -11 -11 -11 -11 -11 -11 -11 -10 -10 -10 -10 -10 -10 -9 -9 -8 -8 -7 -7 -7 -6 -7 -7 -7 -7 -7 -7 -7 -7 -7 -6 -6 -6 -6 -6 -6 -6 -5 -5 -6 -6 -6 -7 -6
-10 -11 -11 -11 -11 -12 -12 -11 -11 -11 -11 -11 -11 -11 -10 -10 -10 -10 -10 -9 -9 -9 -8 -8 -7 -7 -7 -7 -7 -7 -7 -7 -7 -7 -7 -6 -7 -6 -6 -6 -6 -6 -6 -6 -6 -6 -6 -7 -7
-10 -10 -10 -11 -13 -13 -13 -12 -12 -12 -12 -12 -11 -11 -11 -11 -11 -11 -10 -10 -9 -9 -9 -9 -7 -8 -7 -6 -6 -7 -7 -7 -7 -7 -7 -7 -7 -6 -6 -6 -6 -6 -6 -6 -6 -6 -7 -7 -7
-10 -11 -11 -11 -12 -13 -13 -12 -12 -12 -12 -12 -12 -12 -12 -12 -12 -12 -12 -11 -10 -10 -9 -9 -9 -8 -8 -8 -7 -6 -7 -7 -7 -8 -8 -7 -7 -7 -6 -7 -7 -7 -7 -7 -7 -6 -7 -7 -7
-11 -11 -11 -11 -12 -12 -12 -12 -12 -13 -13 -13 -13 -13 -13 -13 -13 -12 -12 -12 -12 -11 -11 -10 -9 -9 -8 -8 -8 -7 -7 -7 -8 -7 -8 -8 -8 -7 -7 -7 -7 -7 -7 -7 -7 -7 -7 -7 -7
-11 -11 -11 -11 -12 -12 -12 -12 -12 -13 -13 -13 -14 -14 -14 -13 -13 -13 -12 -12 -12 -12 -12 -11 -11 -10 -9 -8 -8 -8 -7 -7 -8 -8 -8 -8 -8 -8 -7 -7 -7 -7 -7 -7 -7 -7 -7 -7 -8
-12 -12 -11 -12 -12 -12 -12 -12 -12 -14 -14 -14 -14 -14 -14 -13 -13 -13 -13 -13 -12 -12 -12 -12 -12 -11 -11 -9 -8 -8 -7 -7 -7 -8 -7 -8 -8 -8 -8 -7 -7 -7 -7 -7 -7 -7 -7 -8 -8
-12 -12 -12 -12 -12 -12 -13 -12 -13 -14 -13 -15 -14 -14 -14 -13 -13 -13 -13 -13 -12 -12 -12 -12 -13 -11 -11 -12 -9 -8 -8 -7 -7 -7 -8 -7 -7 -8 -8 -8 -8 -7 -7 -7 -8 -7 -7 -8 -8
-12 -12 -12 -12 -12 -12 -13 -13 -14 -14 -14 -14 -14 -15 -15 -14 -14 -14 -13 -13 -12 -12 -13 -13 -12 -11 -11 -12 -10 -9 -8 -8 -7 -7 -7 -8 -9 -7 -8 -8 -8 -8 -8 -8 -7 -7 -7 -8 -8
-12 -12 -12 -12 -13 -13 -13 -13 -13 -15 -14 -15 -15 -15 -15 -15 -15 -15 -14 -13 -13 -13 -13 -14 -13 -12 -11 -11 -11 -10 -8 -8 -7 -7 -8 -7 -7 -7 -9 -8 -8 -8 -8 -8 -8 -8 -7 -8 -8
-13 -13 -12 -13 -13 -13 -14 -13 -14 -14 -15 -15 -15 -15 -16 -15 -15 -15 -15 -14 -13 -13 -15 -15 -16 -15 -13 -11 -11 -11 -9 -8 -8 -7 -7 -7 -7 -7 -8 -9 -8 -8 -9 -9 -8 -8 -8 -7 -8
-13 -13 -14 -13 -13 -13 -14 -14 -14 -14 -14 -15 -15 -15 -15 -15 -15 -15 -14 -14 -14 -14 -15 -15 -15 -14 -16 -13 -12 -11 -10 -9 -9 -7 -8 -7 -8 -7 -7 -8 -9 -9 -9 -9 -8 -8 -8 -9 -8
-14 -14 -14 -14 -14 -13 -13 -14 -14 -16 -14 -14 -15 -16 -16 -16 -15 -15 -14 -14 -14 -14 -13 -15 -15 -16 -16 -15 -14 -12 -12 -10 -9 -8 -8 -8 -8 -7 -7 -9 -9 -9 -8 -8 -8 -8 -9 -9 -8
-14 -15 -15 -15 -14 -13 -13 -13 -15 -15 -14 -15 -15 -14 -15 -15 -16 -16 -15 -14 -14 -15 -15 -16 -16 -15 -17 -15 -15 -14 -12 -11 -10 -8 -9 -9 -8 -8 -7 -8 -9 -9 -9 -9 -8 -8 -8 -8 -8
-15 -15 -15 -15 -15 -14 -14 -13 -14 -15 -15 -16 -15 -14 -14 -14 -15 -16 -15 -15 -15 -15 -16 -16 -16 -17 -16 -15 -14 -15 -14 -12 -11 -10 -9 -9 -8 -8 -8 -7 -9 -9 -9 -8 -9 -9 -8 -9 -8
-15 -15 -16 -16 -15 -15 -14 -13 -14 -15 -15 -15 -15 -15 -14 -14 -15 -15 -16 -16 -15 -15 -15 -16 -17 -16 -17 -17 -15 -15 -15 -14 -12 -11 -10 -9 -8 -7 -8 -8 -8 -9 -9 -8 -8 -9 -9 -10 -8

GFSSGP_500_temp_207.txt.gz
Temp
-5 -5 -5 -5 -5 -6 -7 -7 -7 -7 -7 -7 -7 -6 -7 -8 -6 -6 -6 -7 -7 -6 -6 -6 -6 -6 -6 -6 -6 -7 -6 -6 -6 -6 -6 -6 -5 -5 -5 -5 -5 -4 -5 -4 -4 -4 -5 -5 -4
-5 -5 -5 -5 -5 -6 -6 -6 -7 -7 -7 -6 -7 -7 -7 -8 -7 -7 -7 -7 -7 -7 -7 -6 -6 -6 -7 -7 -7 -7 -7 -6 -6 -6 -6 -6 -6 -6 -5 -5 -4 -4 -5 -5 -4 -5 -5 -5 -5
-6 -5 -6 -6 -6 -7 -6 -6 -7 -7 -6 -5 -6 -7 -7 -7 -8 -8 -7 -7 -6 -7 -7 -7 -6 -6 -6 -6 -6 -7 -7 -6 -6 -7 -7 -6 -6 -6 -6 -5 -5 -4 -4 -4 -4 -5 -5 -5 -5
-5 -5 -6 -6 -7 -8 -6 -6 -6 -6 -6 -5 -5 -6 -6 -7 -7 -7 -7 -7 -7 -6 -6 -6 -6 -6 -6 -6 -6 -6 -7 -7 -7 -7 -7 -7 -6 -6 -6 -6 -5 -5 -5 -4 -5 -5 -6 -6 -5
-6 -6 -6 -6 -7 -7 -7 -6 -6 -6 -6 -6 -6 -6 -6 -6 -6 -6 -7 -7 -7 -6 -6 -6 -6 -6 -6 -6 -6 -6 -6 -6 -6 -7 -7 -7 -7 -6 -6 -6 -6 -5 -5 -5 -5 -5 -6 -6 -5
-6 -6 -6 -6 -6 -6 -7 -6 -6 -6 -6 -6 -6 -6 -6 -5 -5 -5 -6 -6 -6 -6 -7 -6 -6 -6 -6 -6 -6 -6 -6 -7 -6 -7 -7 -8 -7 -7 -6 -6 -6 -6 -5 -5 -5 -5 -6 -6 -6
-6 -6 -6 -6 -6 -6 -6 -6 -6 -6 -6 -6 -6 -6 -6 -5 -5 -5 -5 -6 -6 -6 -7 -7 -7 -6 -6 -6 -6 -6 -6 -6 -6 -7 -7 -8 -8 -7 -7 -6 -7 -6 -6 -6 -5 -5 -6 -6 -6
-6 -6 -6 -6 -6 -6 -6 -6 -6 -6 -7 -7 -7 -6 -6 -5 -5 -5 -6 -6 -6 -6 -7 -7 -7 -7 -6 -6 -6 -6 -6 -6 -6 -6 -7 -8 -8 -8 -7 -7 -7 -7 -6 -6 -6 -6 -6 -6 -7
-6 -6 -6 -6 -6 -6 -6 -6 -6 -7 -7 -7 -7 -7 -7 -7 -7 -7 -7 -6 -5 -6 -7 -7 -6 -6 -6 -6 -6 -6 -6 -6 -6 -6 -6 -7 -8 -8 -8 -7 -7 -7 -7 -7 -6 -6 -6 -6 -7
-6 -7 -6 -7 -7 -7 -7 -7 -8 -8 -8 -8 -8 -8 -8 -8 -8 -8 -8 -7 -6 -6 -6 -7 -7 -7 -6 -7 -6 -6 -6 -7 -6 -6 -6 -7 -8 -8 -8 -7 -7 -7 -7 -7 -7 -7 -6 -6 -7
-6 -6 -6 -6 -7 -8 -8 -8 -8 -9 -9 -10 -10 -9 -9 -9 -9 -9 -8 -8 -7 -6 -6 -6 -7 -7 -7 -7 -7 -7 -7 -7 -7 -7 -7 -7 -8 -8 -8 -8 -8 -7 -7 -7 -8 -7 -7 -6 -6
-7 -7 -7 -7 -7 -8 -8 -8 -8 -8 -8 -9 -9 -10 -11 -11 -10 -10 -10 -8 -8 -7 -7 -6 -6 -7 -7 -7 -7 -7 -7 -7 -7 -7 -7 -8 -8 -8 -8 -8 -8 -8 -7 -7 -7 -7 -7 -7 -6
-7 -8 -8 -8 -8 -8 -8 -9 -9 -9 -9 -8 -9 -9 -10 -10 -10 -11 -11 -10 -9 -7 -7 -7 -7 -7 -8 -7 -7 -7 -7 -7 -7 -7 -8 -7 -8 -8 -8 -8 -7 -7 -7 -7 -7 -7 -7 -7 -7
-7 -8 -8 -8 -8 -8 -9 -9 -9 -9 -9 -9 -9 -9 -10 -10 -11 -11 -11 -10 -10 -9 -7 -8 -8 -7 -8 -8 -7 -7 -7 -7 -7 -7 -8 -8 -8 -8 -8 -8 -8 -7 -7 -7 -7 -7 -8 -7 -7
-8 -8 -8 -9 -9 -9 -9 -9 -9 -10 -10 -10 -10 -11 -11 -11 -11 -11 -11 -11 -11 -9 -9 -8 -9 -9 -8 -8 -8 -8 -8 -7 -7 -8 -7 -8 -8 -8 -8 -8 -8 -8 -7 -7 -7 -7 -7 -7 -7
-8 -9 -9 -9 -10 -10 -10 -10 -10 -10 -10 -10 -11 -11 -12 -12 -12 -11 -11 -11 -11 -11 -11 -10 -10 -10 -9 -9 -8 -8 -8 -7 -7 -7 -8 -8 -8 -8 -8 -9 -8 -8 -7 -7 -7 -7 -7 -7 -7
-8 -9 -10 -10 -10 -10 -10 -10 -10 -10 -10 -10 -10 -10 -11 -12 -12 -12 -11 -11 -11 -11 -11 -11 -11 -11 -10 -10 -9 -9 -8 -8 -8 -7 -8 -8 -8 -8 -8 -8 -8 -8 -8 -7 -8 -7 -8 -7 -7
-8 -9 -10 -10 -10 -10 -10 -10 -11 -11 -10 -10 -10 -10 -11 -12 -11 -11 -11 -11 -11 -11 -11 -11 -11 -11 -10 -10 -10 -9 -9 -8 -8 -8 -8 -8 -8 -8 -8 -8 -8 -8 -8 -8 -8 -8 -8 -7 -7
-9 -10 -10 -10 -10 -10 -11 -11 -11 -11 -11 -11 -11 -11 -12 -12 -12 -12 -11 -12 -12 -12 -12 -12 -12 -12 -12 -11 -10 -10 -9 -9 -9 -8 -8 -8 -9 -9 -8 -9 -8 -8 -8 -8 -8 -8 -8 -7 -6
-9 -10 -10 -10 -11 -11 -11 -11 -11 -11 -11 -11 -11 -11 -12 -12 -12 -13 -13 -13 -13 -13 -12 -12 -12 -13 -13 -13 -11 -11 -10 -10 -9 -9 -9 -8 -9 -9 -9 -9 -9 -8 -8 -8 -8 -8 -8 -7 -7
-10 -10 -10 -10 -11 -12 -11 -11 -12 -12 -11 -11 -11 -12 -12 -12 -13 -13 -14 -13 -13 -13 -13 -13 -13 -13 -12 -13 -13 -12 -12 -11 -10 -10 -9 -9 -9 -9 -9 -9 -9 -9 -8 -9 -8 -8 -8 -7 -7
-9 -10 -10 -11 -11 -11 -12 -11 -12 -12 -12 -12 -12 -12 -13 -13 -13 -14 -14 -14 -13 -13 -13 -13 -13 -13 -13 -13 -13 -12 -12 -12 -12 -10 -10 -9 -9 -9 -9 -9 -9 -9 -9 -8 -8 -8 -8 -7 -7
-10 -11 -11 -11 -11 -11 -12 -11 -12 -12 -13 -12 -12 -13 -13 -13 -13 -13 -14 -15 -14 -14 -14 -14 -14 -14 -13 -13 -13 -12 -12 -12 -12 -12 -11 -10 -9 -9 -9 -9 -10 -9 -9 -8 -8 -8 -8 -7 -7
-11 -11 -11 -11 -11 -11 -12 -12 -11 -13 -12 -13 -13 -13 -13 -13 -14 -14 -14 -14 -14 -14 -14 -14 -14 -14 -14 -14 -13 -13 -12 -12 -12 -12 -12 -11 -10 -10 -10 -9 -9 -9 -8 -8 -9 -9 -8 -8 -8
-11 -11 -11 -11 -11 -11 -12 -12 -12 -12 -13 -13 -13 -13 -13 -13 -13 -13 -14 -14 -14 -14 -14 -14 -14 -15 -14 -14 -13 -13 -13 -13 -12 -12 -11 -11 -11 -9 -10 -10 -9 -9 -8 -9 -9 -9 -9 -9 -9
-12 -12 -12 -11 -11 -11 -12 -12 -12 -12 -13 -14 -14 -14 -13 -13 -14 -14 -14 -14 -14 -15 -15 -15 -14 -15 -15 -14 -14 -13 -12 -13 -13 -13 -12 -11 -11 -10 -10 -9 -9 -9 -9 -8 -9 -9 -9 -9 -9
-12 -12 -12 -12 -12 -12 -11 -11 -12 -13 -13 -14 -14 -14 -14 -14 -14 -14 -14 -14 -14 -14 -14 -14 -15 -15 -14 -14 -14 -13 -13 -13 -13 -13 -13 -12 -11 -11 -10 -10 -9 -9 -9 -9 -8 -8 -8 -8 -10
-14 -13 -13 -14 -13 -12 -12 -12 -12 -13 -14 -14 -15 -15 -15 -15 -14 -14 -14 -14 -15 -15 -15 -15 -14 -14 -14 -14 -14 -14 -13 -13 -13 -13 -13 -13 -12 -11 -11 -10 -10 -9 -9 -9 -9 -8 -8 -9 -10
-15 -14 -14 -14 -14 -14 -13 -12 -12 -13 -14 -14 -15 -15 -14 -15 -15 -14 -14 -14 -14 -15 -15 -15 -15 -14 -14 -14 -14 -14 -14 -14 -13 -13 -13 -13 -14 -12 -12 -11 -11 -10 -9 -9 -9 -9 -9 -9 -9
-14 -14 -15 -15 -14 -15 -14 -11 -13 -14 -15 -15 -15 -15 -15 -15 -15 -15 -15 -15 -14 -14 -15 -15 -15 -14 -14 -14 -14 -14 -14 -14 -14 -14 -14 -15 -15 -14 -13 -12 -11 -11 -9 -9 -9 -9 -9 -9 -9

GFSSGP_500_temp_210.txt.gz
Temp
-6 -6 -6 -5 -6 -6 -7 -7 -6 -6 -7 -6 -7 -7 -6 -6 -5 -6 -6 -7 -7 -7 -7 -7 -7 -6 -6 -6 -6 -7 -7 -7 -7 -7 -7 -7 -7 -7 -6 -6 -5 -5 -5 -5 -6 -6 -5 -5 -5
-6 -6 -6 -6 -6 -7 -7 -6 -7 -6 -6 -6 -6 -6 -6 -6 -6 -5 -6 -6 -6 -7 -7 -7 -7 -7 -7 -7 -7 -7 -7 -7 -7 -7 -7 -7 -7 -7 -6 -6 -6 -5 -5 -5 -6 -6 -6 -5 -5
-6 -6 -6 -6 -7 -7 -6 -6 -7 -7 -6 -6 -7 -6 -6 -6 -6 -6 -6 -6 -6 -6 -7 -7 -6 -7 -7 -7 -7 -7 -7 -7 -7 -7 -7 -7 -7 -7 -7 -6 -6 -5 -5 -6 -6 -6 -6 -6 -5
-6 -6 -6 -6 -7 -6 -6 -6 -6 -6 -7 -6 -7 -7 -6 -6 -6 -6 -6 -6 -6 -7 -7 -6 -6 -6 -7 -7 -7 -7 -7 -7 -7 -7 -7 -7 -8 -7 -7 -7 -7 -6 -6 -6 -6 -6 -6 -6 -6
-6 -6 -6 -6 -6 -6 -6 -6 -6 -6 -6 -7 -7 -7 -7 -7 -6 -6 -6 -6 -6 -6 -6 -6 -6 -6 -6 -7 -7 -7 -7 -7 -7 -7 -7 -7 -8 -8 -8 -7 -7 -6 -6 -6 -6 -6 -6 -6 -6
-6 -6 -6 -6 -6 -6 -6 -6 -6 -6 -6 -6 -6 -6 -7 -6 -6 -7 -6 -6 -6 -6 -7 -7 -6 -6 -7 -7 -6 -7 -7 -7 -7 -7 -7 -8 -8 -8 -8 -8 -7 -7 -6 -7 -7 -7 -7 -7 -6
-6 -6 -7 -6 -6 -6 -6 -6 -6 -6 -7 -6 -6 -6 -6 -6 -6 -6 -6 -6 -6 -7 -7 -7 -7 -7 -7 -7 -7 -7 -7 -7 -7 -7 -7 -7 -8 -8 -8 -8 -8 -7 -7 -7 -7 -7 -7 -7 -7
-6 -6 -6 -6 -6 -6 -6 -6 -6 -6 -6 -7 -7 -7 -7 -7 -7 -7 -7 -7 -7 -7 -8 -8 -7 -7 -7 -7 -7 -7 -7 -7 -7 -7 -7 -7 -8 -8 -8 -8 -8 -8 -7 -7 -7 -7 -7 -8 -7
-6 -6 -6 -6 -6 -6 -6 -7 -7 -7 -7 -7 -7 -7 -7 -7 -7 -7 -7 -7 -7 -7 -7 -7 -7 -7 -7 -7 -6 -7 -7 -7 -7 -7 -7 -7 -8 -8 -8 -8 -8 -8 -8 -7 -7 -7 -7 -8 -7
-6 -6 -6 -6 -6 -7 -7 -7 -8 -8 -8 -9 -8 -8 -8 -8 -8 -8 -8 -7 -7 -6 -6 -7 -7 -7 -7 -7 -7 -7 -7 -7 -7 -7 -7 -7 -7 -8 -9 -9 -8 -8 -8 -8 -7 -7 -7 -8 -8
-6 -6 -6 -6 -7 -7 -7 -7 -7 -8 -9 -9 -10 -10 -10 -9 -9 -9 -8 -8 -8 -7 -6 -6 -7 -7 -7 -7 -7 -7 -7 -7 -8 -8 -8 -7 -7 -8 -9 -9 -9 -8 -8 -8 -8 -7 -7 -7 -7
-6 -6 -6 -7 -7 -7 -8 -8 -8 -8 -9 -9 -10 -10 -10 -10 -9 -9 -9 -9 -8 -8 -7 -7 -7 -7 -8 -8 -7 -7 -7 -7 -8 -8 -8 -8 -8 -8 -9 -9 -9 -8 -8 -8 -8 -7 -7 -7 -7
-6 -6 -6 -7 -7 -8 -8 -8 -8 -8 -8 -8 -9 -9 -10 -10 -11 -11 -10 -9 -9 -9 -8 -8 -7 -7 -8 -8 -8 -7 -7 -7 -7 -8 -8 -8 -8 -8 -9 -9 -9 -8 -8 -7 -7 -7 -7 -7 -7
-7 -7 -7 -7 -7 -7 -8 -8 -9 -9 -9 -9 -9 -9 -10 -10 -10 -10 -11 -11 -10 -10 -9 -9 -9 -9 -8 -8 -9 -8 -8 -7 -7 -8 -8 -8 -8 -8 -8 -8 -8 -8 -8 -8 -7 -8 -7 -8 -7
-7 -7 -7 -7 -7 -8 -8 -9 -9 -9 -9 -9 -9 -9 -9 -9 -10 -10 -11 -11 -11 -11 -10 -10 -10 -9 -9 -10 -9 -9 -8 -8 -8 -8 -9 -8 -8 -8 -8 -8 -8 -8 -8 -7 -7 -8 -8 -8 -7
-7 -7 -7 -7 -8 -8 -9 -10 -10 -10 -10 -10 -10 -11 -10 -10 -10 -10 -11 -12 -12 -12 -11 -11 -11 -11 -10 -10 -10 -9 -9 -8 -8 -8 -8 -8 -8 -8 -9 -9 -8 -8 -8 -7 -7 -7 -8 -8 -7
-8 -8 -8 -7 -7 -8 -9 -10 -10 -10 -10 -10 -10 -10 -10 -10 -10 -11 -12 -12 -12 -12 -12 -12 -11 -11 -11 -11 -11 -10 -9 -9 -8 -8 -8 -8 -9 -9 -8 -9 -9 -9 -8 -7 -7 -7 -8 -8 -7
-8 -8 -8 -9 -8 -8 -9 -10 -10 -10 -10 -10 -11 -11 -10 -10 -11 -11 -12 -12 -12 -12 -12 -12 -11 -12 -11 -11 -11 -11 -10 -10 -9 -9 -8 -9 -9 -9 -9 -9 -9 -9 -8 -8 -7 -8 -8 -8 -7
-8 -8 -8 -8 -9 -9 -10 -10 -10 -10 -11 -11 -11 -11 -11 -11 -11 -11 -12 -12 -12 -12 -12 -12 -12 -12 -12 -11 -11 -11 -11 -10 -10 -10 -9 -9 -9 -9 -9 -9 -10 -9 -9 -8 -8 -8 -8 -8 -8
-9 -8 -9 -9 -10 -9 -10 -10 -10 -10 -11 -11 -11 -11 -11 -11 -12 -12 -12 -12 -12 -13 -13 -13 -13 -13 -13 -12 -12 -12 -11 -11 -10 -10 -10 -9 -9 -9 -9 -9 -9 -9 -9 -9 -8 -8 -8 -8 -7
-10 -9 -10 -9 -10 -10 -9 -10 -11 -11 -11 -10 -11 -12 -12 -12 -12 -12 -13 -13 -13 -14 -14 -13 -13 -13 -13 -13 -13 -13 -12 -12 -11 -11 -10 -10 -9 -9 -9 -9 -9 -8 -9 -9 -9 -8 -8 -8 -8
-9 -9 -10 -10 -10 -10 -10 -9 -11 -11 -11 -11 -11 -12 -12 -12 -12 -12 -13 -13 -14 -14 -14 -14 -14 -14 -14 -13 -13 -13 -13 -13 -12 -12 -11 -10 -10 -10 -9 -9 -9 -9 -9 -9 -9 -9 -8 -9 -8
-10 -10 -10 -10 -10 -10 -10 -10 -10 -10 -11 -12 -12 -12 -13 -13 -13 -13 -13 -14 -14 -14 -14 -14 -14 -14 -14 -13 -13 -13 -13 -13 -13 -12 -12 -11 -11 -10 -10 -10 -10 -9 -9 -9 -8 -9 -9 -9 -9
-11 -11 -11 -11 -10 -10 -10 -10 -10 -11 -11 -12 -12 -13 -13 -13 -13 -13 -13 -13 -14 -14 -15 -15 -15 -15 -14 -14 -13 -13 -13 -13 -12 -12 -12 -12 -12 -11 -11 -10 -10 -9 -9 -9 -8 -9 -9 -9 -9
-12 -12 -12 -11 -11 -11 -11 -11 -11 -12 -11 -11 -12 -13 -13 -13 -14 -13 -13 -14 -14 -14 -14 -14 -14 -14 -14 -14 -14 -14 -13 -13 -13 -12 -12 -12 -12 -12 -12 -11 -11 -10 -10 -10 -9 -8 -9 -9 -9
-12 -12 -12 -12 -11 -11 -11 -10 -11 -12 -12 -12 -12 -13 -13 -13 -14 -14 -14 -14 -14 -14 -14 -14 -14 -14 -14 -14 -14 -14 -13 -13 -13 -13 -13 -13 -12 -12 -12 -11 -12 -11 -11 -10 -9 -8 -9 -9 -9
-13 -13 -13 -13 -12 -12 -11 -11 -11 -12 -12 -12 -13 -13 -13 -13 -14 -14 -14 -14 -14 -14 -14 -15 -14 -14 -14 -14 -14 -14 -14 -14 -14 -13 -13 -13 -12 -13 -13 -12 -11 -11 -11 -11 -10 -9 -9 -9 -9
-14 -14 -14 -14 -13 -12 -11 -11 -11 -12 -12 -13 -13 -13 -13 -14 -14 -14 -15 -15 -15 -14 -15 -15 -15 -14 -14 -14 -14 -14 -14 -14 -13 -13 -13 -13 -12 -13 -13 -12 -12 -11 -11 -11 -10 -10 -9 -8 -9
-14 -14 -14 -14 -14 -13 -12 -11 -11 -12 -12 -13 -13 -14 -14 -14 -15 -15 -15 -16 -15 -15 -14 -14 -15 -15 -15 -15 -14 -14 -14 -14 -14 -14 -13 -13 -13 -13 -13 -12 -13 -11 -10 -10 -10 -10 -9 -8 -9
-15 -15 -15 -15 -14 -14 -14 -11 -12 -12 -13 -14 -14 -14 -14 -14 -14 -14 -14 -15 -15 -15 -15 -15 -15 -15 -15 -15 -14 -14 -14 -14 -14 -14 -14 -14 -13 -13 -13 -13 -12 -13 -11 -10 -10 -10 -9 -9 -9